Location: Agadir Irigdalene
(31.2522°N, 8.7797°W)
Time: 16:08:12
(UTC+00:00)

USA 215 - Pass Details

Date: 01 December 2020
Orbit: 1098 x 1110 km, 123.0° (Epoch: 22 January)

Event Time Altitude Azimuth Distance (km) Brightness Sun altitude
Exits shadow 18:46:50 13° 35° (NE) 2,763 4.9 -15.7°
Maximum altitude 18:52:46 67° 315° (NW) 1,196 3.5 -17.0°
Drops below altitude 10° 18:59:16 10° 235° (SW) 2,965 6.6 -18.3°
Sets 19:01:45 0° 232° (SW) 3,920 7.4 -18.8°
